Regional Weather Roundup
Issued by NWS

Home | Current Version | Previous Version | Graphics & Text | Print | Product List | Glossary On
Versions: 1 2 3 4 5 6 7 8 9 10 11 12 13 14 15 16 17 18 19 20 21 22 23 24 25 26 27 28 29 30 31 32 33 34 35 36 37 38 39 40 41 42 43 44 45 46 47 48 49 50
000
ASUS43 KLMK 112110
RWRKY
KENTUCKY REGIONAL WEATHER ROUNDUP
NATIONAL WEATHER SERVICE LOUISVILLE KY
400 PM EST MON DEC 11 2017

NOTE "FAIR" INDICATES FEW OR NO CLOUDS BELOW 12,000 FEET
WITH NO SIGNIFICANT WEATHER AND/OR OBSTRUCTIONS TO VISIBILITY.

KYZ001>023-026-027-061>063-070>075-112200-
WESTERN AND SOUTH CENTRAL KENTUCKY

CITY           SKY/WX    TMP DP  RH WIND       PRES   REMARKS
PADUCAH        SUNNY     62  26  25 SW15G30   29.78F
HENDERSON      SUNNY     56  33  42 SW20G28   29.75F
OWENSBORO      PTSUNNY   56  33  42 S17       29.76F
HOPKINSVILLE   MOSUNNY   59  28  30 S18       29.82F
BOWLING GREEN  MOSUNNY   57  31  37 SW16      29.84F
GLASGOW        SUNNY     55  29  37 SW12G18   29.85F
$$

KYZ024-025-028>034-038-045-046-053-112200-
NORTH CENTRAL KENTUCKY

CITY           SKY/WX    TMP DP  RH WIND       PRES   REMARKS
LOUISVILLE/SDF PTSUNNY   54  29  38 S12G23    29.76F
LOUISVILLE/LOU PTSUNNY   53  30  41 S13       29.77F
FORT KNOX      MOSUNNY   53  29  40 S15G23    29.75F
$$

KYZ035>037-039>044-047>052-055>060-089>105-112200-
NORTHEAST KENTUCKY

CITY           SKY/WX    TMP DP  RH WIND       PRES   REMARKS
LEXINGTON      SUNNY     51  28  41 S10       29.81F
COVINGTON      CLOUDY    45  30  55 S12       29.77F
FRANKFORT      MOSUNNY   52  26  36 S13G21    29.78F
$$

KYZ054-064>069-076>088-106>120-112200-
SOUTHEAST KENTUCKY

CITY           SKY/WX    TMP DP  RH WIND       PRES   REMARKS
JACKSON        SUNNY     53  26  35 VRB6      29.86F
LONDON         SUNNY     54  26  34 SW10      29.88F
SOMERSET       SUNNY     54  28  37 W9        29.88F
MIDDLESBORO    SUNNY     52  29  42 S12       29.93F
MONTICELLO     CLEAR     55  30  38 SW14G24   29.89F
$$




USA.gov is the U.S. government's official web portal to all federal, state and local government web resources and services.